Time,TemperatureF,DewpointF,PressureIn,WindDirection,WindDirectionDegrees,WindSpeedMPH,WindSpeedGustMPH,Humidity,HourlyPrecipIn,Conditions,Clouds,dailyrainin,SolarRadiationWatts/m^2,SoftwareType,DateUTC
2013-07-27 00:02:00,53.0,46.0,-100.00,North,9,2.0,12.0,78,0.00,,,0.05,0.000000,,2013-07-27 05:02:00,
2013-07-27 00:12:00,53.0,46.0,-100.00,North,9,2.0,12.0,78,0.00,,,0.05,0.000000,,2013-07-27 05:12:00,
2013-07-27 00:20:00,53.0,47.0,-100.00,NNE,12,2.0,7.0,80,0.00,,,0.05,0.000000,,2013-07-27 05:20:00,
2013-07-27 00:43:00,53.0,47.0,-100.00,NNE,12,2.0,7.0,80,0.00,,,0.05,0.000000,,2013-07-27 05:43:00,
2013-07-27 00:52:00,53.0,47.0,-100.00,NNE,12,2.0,7.0,80,0.00,,,0.05,0.000000,,2013-07-27 05:52:00,
2013-07-27 01:02:00,53.0,47.0,-100.00,NNE,12,2.0,7.0,80,0.00,,,0.05,0.000000,,2013-07-27 06:02:00,
2013-07-27 01:12:00,53.0,47.0,-100.00,NNE,12,2.0,7.0,80,0.00,,,0.05,0.000000,,2013-07-27 06:12:00,
2013-07-27 01:20:00,51.0,49.0,-100.00,NW,324,3.0,8.0,94,0.02,,,0.07,0.000000,,2013-07-27 06:20:00,
2013-07-27 01:43:00,51.0,49.0,-100.00,NW,324,3.0,8.0,94,0.02,,,0.07,0.000000,,2013-07-27 06:43:00,
2013-07-27 01:52:00,51.0,49.0,-100.00,NW,324,3.0,8.0,94,0.02,,,0.07,0.000000,,2013-07-27 06:52:00,
2013-07-27 02:02:00,51.0,49.0,-100.00,NW,324,3.0,8.0,94,0.02,,,0.07,0.000000,,2013-07-27 07:02:00,
2013-07-27 02:12:00,51.0,49.0,-100.00,NW,324,3.0,8.0,94,0.02,,,0.07,0.000000,,2013-07-27 07:12:00,
2013-07-27 02:20:00,51.0,49.0,-100.00,NNW,335,4.0,9.0,93,0.00,,,0.07,0.000000,,2013-07-27 07:20:00,
2013-07-27 02:44:00,51.0,49.0,-100.00,NNW,335,4.0,9.0,93,0.00,,,0.07,0.000000,,2013-07-27 07:44:00,
2013-07-27 02:52:00,51.0,49.0,-100.00,NNW,335,4.0,9.0,93,0.00,,,0.07,0.000000,,2013-07-27 07:52:00,
2013-07-27 03:02:00,51.0,49.0,-100.00,NNW,335,4.0,9.0,93,0.00,,,0.07,0.000000,,2013-07-27 08:02:00,
2013-07-27 03:12:00,51.0,49.0,-100.00,NNW,335,4.0,9.0,93,0.00,,,0.07,0.000000,,2013-07-27 08:12:00,
2013-07-27 03:20:00,50.0,49.0,-100.00,NE,46,0.0,6.0,96,0.02,,,0.09,0.000000,,2013-07-27 08:20:00,
2013-07-27 03:43:00,50.0,49.0,-100.00,NE,46,0.0,6.0,96,0.02,,,0.09,0.000000,,2013-07-27 08:43:00,
2013-07-27 03:53:00,50.0,49.0,-100.00,NE,46,0.0,6.0,96,0.02,,,0.09,0.000000,,2013-07-27 08:53:00,
2013-07-27 04:02:00,50.0,49.0,-100.00,NE,46,0.0,6.0,96,0.02,,,0.09,0.000000,,2013-07-27 09:02:00,
2013-07-27 04:12:00,50.0,49.0,-100.00,NE,46,0.0,6.0,96,0.02,,,0.09,0.000000,,2013-07-27 09:12:00,
2013-07-27 04:20:00,49.0,47.0,-100.00,NW,326,3.0,8.0,93,0.00,,,0.09,0.000000,,2013-07-27 09:20:00,
2013-07-27 04:52:00,49.0,47.0,-100.00,NW,326,3.0,8.0,93,0.00,,,0.09,0.000000,,2013-07-27 09:52:00,
2013-07-27 05:02:00,49.0,47.0,-100.00,NW,326,3.0,8.0,93,0.00,,,0.09,0.000000,,2013-07-27 10:02:00,
2013-07-27 05:12:00,49.0,47.0,-100.00,NW,326,3.0,8.0,93,0.00,,,0.09,0.000000,,2013-07-27 10:12:00,
2013-07-27 05:20:00,49.0,48.0,-100.00,WNW,295,2.0,5.0,95,0.00,,,0.09,0.000000,,2013-07-27 10:20:00,
2013-07-27 05:44:00,49.0,48.0,-100.00,WNW,295,2.0,5.0,95,0.00,,,0.09,0.000000,,2013-07-27 10:44:00,
2013-07-27 05:52:00,49.0,48.0,-100.00,WNW,295,2.0,5.0,95,0.00,,,0.09,0.000000,,2013-07-27 10:52:00,
2013-07-27 06:02:00,49.0,48.0,-100.00,WNW,295,2.0,5.0,95,0.00,,,0.09,0.000000,,2013-07-27 11:02:00,
2013-07-27 06:12:00,49.0,48.0,-100.00,WNW,295,2.0,5.0,95,0.00,,,0.09,0.000000,,2013-07-27 11:12:00,
2013-07-27 06:20:00,50.0,47.0,-100.00,WNW,287,5.0,9.0,91,0.00,,,0.09,3.000000,,2013-07-27 11:20:00,
2013-07-27 06:44:00,50.0,47.0,-100.00,WNW,287,5.0,9.0,91,0.00,,,0.09,3.000000,,2013-07-27 11:44:00,
2013-07-27 06:53:00,50.0,47.0,-100.00,WNW,287,5.0,9.0,91,0.00,,,0.09,3.000000,,2013-07-27 11:53:00,
2013-07-27 07:03:00,50.0,47.0,-100.00,WNW,287,5.0,9.0,91,0.00,,,0.09,3.000000,,2013-07-27 12:03:00,
2013-07-27 07:12:00,50.0,47.0,-100.00,WNW,287,5.0,9.0,91,0.00,,,0.09,3.000000,,2013-07-27 12:12:00,
2013-07-27 07:20:00,52.0,48.0,-100.00,WNW,294,7.0,11.0,85,0.00,,,0.09,116.000000,,2013-07-27 12:20:00,
2013-07-27 07:43:00,52.0,48.0,-100.00,WNW,294,7.0,11.0,85,0.00,,,0.09,116.000000,,2013-07-27 12:43:00,
2013-07-27 07:52:00,52.0,48.0,-100.00,WNW,294,7.0,11.0,85,0.00,,,0.09,116.000000,,2013-07-27 12:52:00,
2013-07-27 08:02:00,52.0,48.0,-100.00,WNW,294,7.0,11.0,85,0.00,,,0.09,116.000000,,2013-07-27 13:02:00,
2013-07-27 08:12:00,52.0,48.0,-100.00,WNW,294,7.0,11.0,85,0.00,,,0.09,116.000000,,2013-07-27 13:12:00,
2013-07-27 08:20:00,53.0,46.0,-100.00,WNW,296,10.0,16.0,76,0.00,,,0.09,252.000000,,2013-07-27 13:20:00,
2013-07-27 08:44:00,53.0,46.0,-100.00,WNW,296,10.0,16.0,76,0.00,,,0.09,252.000000,,2013-07-27 13:44:00,
2013-07-27 08:53:00,53.0,46.0,-100.00,WNW,296,10.0,16.0,76,0.00,,,0.09,252.000000,,2013-07-27 13:53:00,
2013-07-27 09:02:00,53.0,46.0,-100.00,WNW,296,10.0,16.0,76,0.00,,,0.09,252.000000,,2013-07-27 14:02:00,
2013-07-27 09:12:00,53.0,46.0,-100.00,WNW,296,10.0,16.0,76,0.00,,,0.09,252.000000,,2013-07-27 14:12:00,
2013-07-27 09:20:00,58.0,47.0,-100.00,WNW,298,11.0,21.0,66,0.00,,,0.09,483.000000,,2013-07-27 14:20:00,
2013-07-27 09:44:00,58.0,47.0,-100.00,WNW,298,11.0,21.0,66,0.00,,,0.09,483.000000,,2013-07-27 14:44:00,
2013-07-27 09:54:00,58.0,47.0,-100.00,WNW,298,11.0,21.0,66,0.00,,,0.09,483.000000,,2013-07-27 14:54:00,
2013-07-27 10:02:00,58.0,47.0,-100.00,WNW,298,11.0,21.0,66,0.00,,,0.09,483.000000,,2013-07-27 15:02:00,
2013-07-27 10:12:00,58.0,47.0,-100.00,WNW,298,11.0,21.0,66,0.00,,,0.09,483.000000,,2013-07-27 15:12:00,
2013-07-27 10:20:00,58.0,46.0,-100.00,NNW,331,11.0,21.0,65,0.00,,,0.09,481.000000,,2013-07-27 15:20:00,
2013-07-27 10:44:00,58.0,46.0,-100.00,NNW,331,11.0,21.0,65,0.00,,,0.09,481.000000,,2013-07-27 15:44:00,
2013-07-27 10:53:00,58.0,46.0,-100.00,NNW,331,11.0,21.0,65,0.00,,,0.09,481.000000,,2013-07-27 15:53:00,
2013-07-27 11:02:00,58.0,46.0,-100.00,NNW,331,11.0,21.0,65,0.00,,,0.09,481.000000,,2013-07-27 16:02:00,
2013-07-27 11:12:00,58.0,46.0,-100.00,NNW,331,11.0,21.0,65,0.00,,,0.09,481.000000,,2013-07-27 16:12:00,
2013-07-27 11:20:00,56.0,46.0,-100.00,NNW,340,9.0,20.0,68,0.00,,,0.04,289.000000,,2013-07-27 16:20:00,
2013-07-27 11:43:00,56.0,46.0,-100.00,NNW,340,9.0,20.0,68,0.00,,,0.04,289.000000,,2013-07-27 16:43:00,
2013-07-27 11:54:00,56.0,46.0,-100.00,NNW,340,9.0,20.0,68,0.00,,,0.04,289.000000,,2013-07-27 16:54:00,
2013-07-27 12:02:00,56.0,46.0,-100.00,NNW,340,9.0,20.0,68,0.00,,,0.04,289.000000,,2013-07-27 17:02:00,
2013-07-27 12:12:00,56.0,46.0,-100.00,NNW,340,9.0,20.0,68,0.00,,,0.04,289.000000,,2013-07-27 17:12:00,
2013-07-27 12:20:00,57.0,46.0,-100.00,NW,326,7.0,18.0,66,0.00,,,0.04,283.000000,,2013-07-27 17:20:00,
2013-07-27 12:43:00,57.0,46.0,-100.00,NW,326,7.0,18.0,66,0.00,,,0.04,283.000000,,2013-07-27 17:43:00,
2013-07-27 12:54:00,57.0,46.0,-100.00,NW,326,7.0,18.0,66,0.00,,,0.04,283.000000,,2013-07-27 17:54:00,
2013-07-27 13:02:00,57.0,46.0,-100.00,NW,326,7.0,18.0,66,0.00,,,0.04,283.000000,,2013-07-27 18:02:00,
2013-07-27 13:12:00,57.0,46.0,-100.00,NW,326,7.0,18.0,66,0.00,,,0.04,283.000000,,2013-07-27 18:12:00,
2013-07-27 13:20:00,61.0,45.0,-100.00,NW,316,12.0,22.0,55,0.00,,,0.04,577.000000,,2013-07-27 18:20:00,
2013-07-27 13:43:00,61.0,45.0,-100.00,NW,316,12.0,22.0,55,0.00,,,0.04,577.000000,,2013-07-27 18:43:00,
2013-07-27 13:53:00,61.0,45.0,-100.00,NW,316,12.0,22.0,55,0.00,,,0.04,577.000000,,2013-07-27 18:53:00,
2013-07-27 14:02:00,61.0,45.0,-100.00,NW,316,12.0,22.0,55,0.00,,,0.04,577.000000,,2013-07-27 19:02:00,
2013-07-27 14:12:00,61.0,45.0,-100.00,NW,316,12.0,22.0,55,0.00,,,0.04,577.000000,,2013-07-27 19:12:00,
2013-07-27 14:20:00,59.0,47.0,-100.00,NW,309,9.0,20.0,65,0.00,,,0.04,226.000000,,2013-07-27 19:20:00,
2013-07-27 14:43:00,59.0,47.0,-100.00,NW,309,9.0,20.0,65,0.00,,,0.04,226.000000,,2013-07-27 19:43:00,
2013-07-27 14:53:00,59.0,47.0,-100.00,NW,309,9.0,20.0,65,0.00,,,0.04,226.000000,,2013-07-27 19:53:00,
2013-07-27 15:02:00,59.0,47.0,-100.00,NW,309,9.0,20.0,65,0.00,,,0.04,226.000000,,2013-07-27 20:02:00,
2013-07-27 15:12:00,59.0,47.0,-100.00,NW,309,9.0,20.0,65,0.00,,,0.04,226.000000,,2013-07-27 20:12:00,
2013-07-27 15:20:00,60.0,47.0,-100.00,NW,321,6.0,15.0,63,0.00,,,0.04,254.000000,,2013-07-27 20:20:00,
2013-07-27 15:43:00,60.0,47.0,-100.00,NW,321,6.0,15.0,63,0.00,,,0.04,254.000000,,2013-07-27 20:43:00,
2013-07-27 15:52:00,60.0,47.0,-100.00,NW,321,6.0,15.0,63,0.00,,,0.04,254.000000,,2013-07-27 20:52:00,
2013-07-27 16:03:00,60.0,47.0,-100.00,NW,321,6.0,15.0,63,0.00,,,0.04,254.000000,,2013-07-27 21:03:00,
2013-07-27 16:12:00,60.0,47.0,-100.00,NW,321,6.0,15.0,63,0.00,,,0.04,254.000000,,2013-07-27 21:12:00,
2013-07-27 16:20:00,60.0,49.0,-100.00,WNW,302,5.0,13.0,67,0.00,,,0.04,316.000000,,2013-07-27 21:20:00,
2013-07-27 16:53:00,60.0,49.0,-100.00,WNW,302,5.0,13.0,67,0.00,,,0.04,316.000000,,2013-07-27 21:53:00,
2013-07-27 17:02:00,60.0,49.0,-100.00,WNW,302,5.0,13.0,67,0.00,,,0.04,316.000000,,2013-07-27 22:02:00,
2013-07-27 17:12:00,60.0,49.0,-100.00,WNW,302,5.0,13.0,67,0.00,,,0.04,316.000000,,2013-07-27 22:12:00,
2013-07-27 17:20:00,60.0,47.0,-100.00,NNW,347,7.0,18.0,63,0.00,,,0.04,104.000000,,2013-07-27 22:20:00,
2013-07-27 17:43:00,60.0,47.0,-100.00,NNW,347,7.0,18.0,63,0.00,,,0.04,104.000000,,2013-07-27 22:43:00,
2013-07-27 17:53:00,60.0,47.0,-100.00,NNW,347,7.0,18.0,63,0.00,,,0.04,104.000000,,2013-07-27 22:53:00,
2013-07-27 18:02:00,60.0,47.0,-100.00,NNW,347,7.0,18.0,63,0.00,,,0.04,104.000000,,2013-07-27 23:02:00,
2013-07-27 18:12:00,60.0,47.0,-100.00,NNW,347,7.0,18.0,63,0.00,,,0.04,104.000000,,2013-07-27 23:12:00,
2013-07-27 18:20:00,61.0,47.0,-100.00,NNW,333,8.0,17.0,59,0.00,,,0.04,172.000000,,2013-07-27 23:20:00,
2013-07-27 18:44:00,61.0,47.0,-100.00,NNW,333,8.0,17.0,59,0.00,,,0.04,172.000000,,2013-07-27 23:44:00,
2013-07-27 18:53:00,61.0,47.0,-100.00,NNW,333,8.0,17.0,59,0.00,,,0.04,172.000000,,2013-07-27 23:53:00,
2013-07-27 19:02:00,61.0,47.0,-100.00,NNW,333,8.0,17.0,59,0.00,,,0.04,172.000000,,2013-07-28 00:02:00,
2013-07-27 19:12:00,61.0,47.0,-100.00,NNW,333,8.0,17.0,59,0.00,,,0.04,172.000000,,2013-07-28 00:12:00,
2013-07-27 19:20:00,59.0,47.0,-100.00,NW,324,6.0,16.0,64,0.00,,,0.04,67.000000,,2013-07-28 00:20:00,
2013-07-27 19:53:00,59.0,47.0,-100.00,NW,324,6.0,16.0,64,0.00,,,0.04,67.000000,,2013-07-28 00:53:00,
2013-07-27 20:02:00,59.0,47.0,-100.00,NW,324,6.0,16.0,64,0.00,,,0.04,67.000000,,2013-07-28 01:02:00,
2013-07-27 20:12:00,59.0,47.0,-100.00,NW,324,6.0,16.0,64,0.00,,,0.04,67.000000,,2013-07-28 01:12:00,
2013-07-27 20:20:00,58.0,46.0,-100.00,North,3,6.0,16.0,64,0.00,,,0.04,20.000000,,2013-07-28 01:20:00,
2013-07-27 20:43:00,58.0,46.0,-100.00,North,3,6.0,16.0,64,0.00,,,0.04,20.000000,,2013-07-28 01:43:00,
2013-07-27 20:53:00,58.0,46.0,-100.00,North,3,6.0,16.0,64,0.00,,,0.04,20.000000,,2013-07-28 01:53:00,
2013-07-27 21:03:00,58.0,46.0,-100.00,North,3,6.0,16.0,64,0.00,,,0.04,20.000000,,2013-07-28 02:03:00,
2013-07-27 21:12:00,58.0,46.0,-100.00,North,3,6.0,16.0,64,0.00,,,0.04,20.000000,,2013-07-28 02:12:00,
2013-07-27 21:20:00,56.0,47.0,-100.00,North,351,6.0,14.0,72,0.00,,,0.04,4.000000,,2013-07-28 02:20:00,
2013-07-27 21:42:00,56.0,47.0,-100.00,North,351,6.0,14.0,72,0.00,,,0.04,4.000000,,2013-07-28 02:42:00,
2013-07-27 21:53:00,56.0,47.0,-100.00,North,351,6.0,14.0,72,0.00,,,0.04,4.000000,,2013-07-28 02:53:00,
2013-07-27 22:02:00,56.0,47.0,-100.00,North,351,6.0,14.0,72,0.00,,,0.04,4.000000,,2013-07-28 03:02:00,
2013-07-27 22:12:00,56.0,47.0,-100.00,North,351,6.0,14.0,72,0.00,,,0.04,4.000000,,2013-07-28 03:12:00,
2013-07-27 22:20:00,55.0,43.0,-100.00,NNW,334,8.0,14.0,64,0.00,,,0.04,0.000000,,2013-07-28 03:20:00,
2013-07-27 22:53:00,55.0,43.0,-100.00,NNW,334,8.0,14.0,64,0.00,,,0.04,0.000000,,2013-07-28 03:53:00,
2013-07-27 23:02:00,55.0,43.0,-100.00,NNW,334,8.0,14.0,64,0.00,,,0.04,0.000000,,2013-07-28 04:02:00,
2013-07-27 23:12:00,55.0,43.0,-100.00,NNW,334,8.0,14.0,64,0.00,,,0.04,0.000000,,2013-07-28 04:12:00,
2013-07-27 23:20:00,52.0,45.0,-100.00,NW,304,4.0,12.0,77,0.00,,,0.04,0.000000,,2013-07-28 04:20:00,
2013-07-27 23:43:00,52.0,45.0,-100.00,NW,304,4.0,12.0,77,0.00,,,0.04,0.000000,,2013-07-28 04:43:00,
2013-07-27 23:53:00,52.0,45.0,-100.00,NW,304,4.0,12.0,77,0.00,,,0.04,0.000000,,2013-07-28 04:53:00,